Year,Month,Day,Hour,Minute,Value (Times are PST for temperature in C)
2012,07,25,00,00,12.40
2012,07,25,00,01,12.40
2012,07,25,00,02,12.40
2012,07,25,00,03,12.40
2012,07,25,00,04,12.40
2012,07,25,00,05,12.40
2012,07,25,00,06,12.30
2012,07,25,00,07,12.30
2012,07,25,00,08,12.30
2012,07,25,00,09,12.30
2012,07,25,00,10,12.30
2012,07,25,00,11,12.30
2012,07,25,00,12,12.20
2012,07,25,00,13,12.20
2012,07,25,00,14,12.20
2012,07,25,00,15,12.20
2012,07,25,00,16,12.20
2012,07,25,00,17,12.10
2012,07,25,00,18,12.10
2012,07,25,00,19,12.10
2012,07,25,00,20,12.10
2012,07,25,00,21,12.10
2012,07,25,00,22,12.00
2012,07,25,00,23,12.00
2012,07,25,00,24,12.00
2012,07,25,00,25,12.00
2012,07,25,00,26,12.00
2012,07,25,00,27,11.90
2012,07,25,00,28,11.90
2012,07,25,00,29,11.90
2012,07,25,00,30,11.90
2012,07,25,00,31,11.90
2012,07,25,00,32,11.90
2012,07,25,00,33,11.90
2012,07,25,00,34,11.80
2012,07,25,00,35,11.80
2012,07,25,00,36,11.80
2012,07,25,00,37,11.80
2012,07,25,00,38,11.80
2012,07,25,00,39,11.80
2012,07,25,00,40,11.80
2012,07,25,00,41,11.80
2012,07,25,00,42,11.80
2012,07,25,00,43,11.80
2012,07,25,00,44,11.80
2012,07,25,00,45,11.80
2012,07,25,00,46,11.80
2012,07,25,00,47,11.80
2012,07,25,00,48,11.80
2012,07,25,00,49,11.80
2012,07,25,00,50,11.80
2012,07,25,00,51,11.80
2012,07,25,00,52,11.80
2012,07,25,00,53,11.70
2012,07,25,00,54,11.70
2012,07,25,00,55,11.70
2012,07,25,00,56,11.70
2012,07,25,00,57,11.60
2012,07,25,00,58,11.60
2012,07,25,00,59,11.60
2012,07,25,01,00,11.60
2012,07,25,01,01,11.60
2012,07,25,01,02,11.60
2012,07,25,01,03,11.60
2012,07,25,01,04,11.60
2012,07,25,01,05,11.60
2012,07,25,01,06,11.60
2012,07,25,01,07,11.60
2012,07,25,01,08,11.60
2012,07,25,01,09,11.60
2012,07,25,01,10,11.50
2012,07,25,01,11,11.50
2012,07,25,01,12,11.50
2012,07,25,01,13,11.50
2012,07,25,01,14,11.50
2012,07,25,01,15,11.50
2012,07,25,01,16,11.50
2012,07,25,01,17,11.50
2012,07,25,01,18,11.50
2012,07,25,01,19,11.50
2012,07,25,01,20,11.50
2012,07,25,01,21,11.50
2012,07,25,01,22,11.40
2012,07,25,01,23,11.40
2012,07,25,01,24,11.40
2012,07,25,01,25,11.40
2012,07,25,01,26,11.40
2012,07,25,01,27,11.40
2012,07,25,01,28,11.40
2012,07,25,01,29,11.40
2012,07,25,01,30,11.40
2012,07,25,01,31,11.30
2012,07,25,01,32,11.30
2012,07,25,01,33,11.30
2012,07,25,01,34,11.30
2012,07,25,01,35,11.30
2012,07,25,01,36,11.30
2012,07,25,01,37,11.20
2012,07,25,01,38,11.20
2012,07,25,01,39,11.20
2012,07,25,01,40,11.20
2012,07,25,01,41,11.20
2012,07,25,01,42,11.10
2012,07,25,01,43,11.10
2012,07,25,01,44,11.10
2012,07,25,01,45,11.10
2012,07,25,01,46,11.10
2012,07,25,01,47,11.10
2012,07,25,01,48,11.10
2012,07,25,01,49,11.10
2012,07,25,01,50,11.10
2012,07,25,01,51,11.10
2012,07,25,01,52,11.00
2012,07,25,01,53,11.00
2012,07,25,01,54,11.00
2012,07,25,01,55,11.00
2012,07,25,01,56,11.00
2012,07,25,01,57,10.90
2012,07,25,01,58,10.90
2012,07,25,01,59,10.90
2012,07,25,02,00,10.90
2012,07,25,02,01,10.90
2012,07,25,02,02,10.90
2012,07,25,02,03,10.90
2012,07,25,02,04,10.80
2012,07,25,02,05,10.80
2012,07,25,02,06,10.80
2012,07,25,02,07,10.80
2012,07,25,02,08,10.80
2012,07,25,02,09,10.80
2012,07,25,02,10,10.80
2012,07,25,02,11,10.80
2012,07,25,02,12,10.80
2012,07,25,02,13,10.80
2012,07,25,02,14,10.80
2012,07,25,02,15,10.80
2012,07,25,02,16,10.80
2012,07,25,02,17,10.70
2012,07,25,02,18,10.70
2012,07,25,02,19,10.70
2012,07,25,02,20,10.70
2012,07,25,02,21,10.70
2012,07,25,02,22,10.70
2012,07,25,02,23,10.60
2012,07,25,02,24,10.60
2012,07,25,02,25,10.60
2012,07,25,02,26,10.60
2012,07,25,02,27,10.60
2012,07,25,02,28,10.60
2012,07,25,02,29,10.60
2012,07,25,02,30,10.60
2012,07,25,02,31,10.60
2012,07,25,02,32,10.60
2012,07,25,02,33,10.60
2012,07,25,02,34,10.60
2012,07,25,02,35,10.50
2012,07,25,02,36,10.50
2012,07,25,02,37,10.50
2012,07,25,02,38,10.60
2012,07,25,02,39,10.60
2012,07,25,02,40,10.60
2012,07,25,02,41,10.60
2012,07,25,02,42,10.60
2012,07,25,02,43,10.60
2012,07,25,02,44,10.60
2012,07,25,02,45,10.60
2012,07,25,02,46,10.60
2012,07,25,02,47,10.70
2012,07,25,02,48,10.70
2012,07,25,02,49,10.60
2012,07,25,02,50,10.60
2012,07,25,02,51,10.60
2012,07,25,02,52,10.60
2012,07,25,02,53,10.60
2012,07,25,02,54,10.60
2012,07,25,02,55,10.60
2012,07,25,02,56,10.60
2012,07,25,02,57,10.60
2012,07,25,02,58,10.60
2012,07,25,02,59,10.60
2012,07,25,03,00,10.60
2012,07,25,03,01,10.60
2012,07,25,03,02,10.60
2012,07,25,03,03,10.50
2012,07,25,03,04,10.50
2012,07,25,03,05,10.50
2012,07,25,03,06,10.50
2012,07,25,03,07,10.40
2012,07,25,03,08,10.40
2012,07,25,03,09,10.40
2012,07,25,03,10,10.40
2012,07,25,03,11,10.40
2012,07,25,03,12,10.40
2012,07,25,03,13,10.30
2012,07,25,03,14,10.30
2012,07,25,03,15,10.30
2012,07,25,03,16,10.30
2012,07,25,03,17,10.30
2012,07,25,03,18,10.20
2012,07,25,03,19,10.20
2012,07,25,03,20,10.20
2012,07,25,03,21,10.20
2012,07,25,03,22,10.20
2012,07,25,03,23,10.20
2012,07,25,03,24,10.20
2012,07,25,03,25,10.20
2012,07,25,03,26,10.10
2012,07,25,03,27,10.10
2012,07,25,03,28,10.10
2012,07,25,03,29,10.10
2012,07,25,03,30,10.10
2012,07,25,03,31,10.00
2012,07,25,03,32,10.00
2012,07,25,03,33,10.00
2012,07,25,03,34,10.00
2012,07,25,03,35,10.00
2012,07,25,03,36,10.10
2012,07,25,03,37,10.10
2012,07,25,03,38,10.10
2012,07,25,03,39,10.10
2012,07,25,03,40,10.10
2012,07,25,03,41,10.10
2012,07,25,03,42,10.10
2012,07,25,03,43,10.10
2012,07,25,03,44,10.10
2012,07,25,03,45,10.10
2012,07,25,03,46,10.10
2012,07,25,03,47,10.10
2012,07,25,03,48,10.10
2012,07,25,03,49,10.10
2012,07,25,03,50,10.10
2012,07,25,03,51,10.10
2012,07,25,03,52,10.00
2012,07,25,03,53,10.00
2012,07,25,03,54,10.00
2012,07,25,03,55,10.00
2012,07,25,03,56,10.00
2012,07,25,03,57,10.00
2012,07,25,03,58,10.00
2012,07,25,03,59,10.00
2012,07,25,04,00,10.00
2012,07,25,04,01,9.90
2012,07,25,04,02,10.00
2012,07,25,04,03,9.90
2012,07,25,04,04,9.90
2012,07,25,04,05,9.90
2012,07,25,04,06,10.00
2012,07,25,04,07,10.00
2012,07,25,04,08,10.00
2012,07,25,04,09,10.00
2012,07,25,04,10,10.00
2012,07,25,04,11,10.00
2012,07,25,04,12,10.00
2012,07,25,04,13,10.00
2012,07,25,04,14,10.00
2012,07,25,04,15,10.00
2012,07,25,04,16,10.00
2012,07,25,04,17,9.90
2012,07,25,04,18,9.90
2012,07,25,04,19,9.90
2012,07,25,04,20,9.90
2012,07,25,04,21,9.90
2012,07,25,04,22,9.90
2012,07,25,04,23,9.90
2012,07,25,04,24,10.00
2012,07,25,04,25,10.00
2012,07,25,04,26,10.10
2012,07,25,04,27,10.20
2012,07,25,04,28,10.20
2012,07,25,04,29,10.30
2012,07,25,04,30,10.30
2012,07,25,04,31,10.30
2012,07,25,04,32,10.30
2012,07,25,04,33,10.20
2012,07,25,04,34,10.20
2012,07,25,04,35,10.10
2012,07,25,04,36,10.00
2012,07,25,04,37,10.00
2012,07,25,04,38,9.90
2012,07,25,04,39,9.90
2012,07,25,04,40,9.90
2012,07,25,04,41,9.80
2012,07,25,04,42,9.80
2012,07,25,04,43,9.80
2012,07,25,04,44,9.70
2012,07,25,04,45,9.70
2012,07,25,04,46,9.70
2012,07,25,04,47,9.70
2012,07,25,04,48,9.70
2012,07,25,04,49,9.70
2012,07,25,04,50,9.70
2012,07,25,04,51,9.70
2012,07,25,04,52,9.70
2012,07,25,04,53,9.70
2012,07,25,04,54,9.70
2012,07,25,04,55,9.70
2012,07,25,04,56,9.70
2012,07,25,04,57,9.70
2012,07,25,04,58,9.80
2012,07,25,04,59,9.80
2012,07,25,05,00,9.80
2012,07,25,05,01,9.80
2012,07,25,05,02,9.80
2012,07,25,05,03,9.80
2012,07,25,05,04,9.80
2012,07,25,05,05,9.80
2012,07,25,05,06,9.80
2012,07,25,05,07,9.80
2012,07,25,05,08,9.80
2012,07,25,05,09,9.80
2012,07,25,05,10,9.80
2012,07,25,05,11,9.80
2012,07,25,05,12,9.80
2012,07,25,05,13,9.80
2012,07,25,05,14,9.80
2012,07,25,05,15,9.80
2012,07,25,05,16,9.80
2012,07,25,05,17,9.70
2012,07,25,05,18,9.70
2012,07,25,05,19,9.70
2012,07,25,05,20,9.70
2012,07,25,05,21,9.70
2012,07,25,05,22,9.70
2012,07,25,05,23,9.70
2012,07,25,05,24,9.60
2012,07,25,05,25,9.60
2012,07,25,05,26,9.60
2012,07,25,05,27,9.60
2012,07,25,05,28,9.70
2012,07,25,05,29,9.70
2012,07,25,05,30,9.70
2012,07,25,05,31,9.70
2012,07,25,05,32,9.70
2012,07,25,05,33,9.70
2012,07,25,05,34,9.70
2012,07,25,05,35,9.70
2012,07,25,05,36,9.70
2012,07,25,05,37,9.70
2012,07,25,05,38,9.70
2012,07,25,05,39,9.70
2012,07,25,05,40,9.60
2012,07,25,05,41,9.60
2012,07,25,05,42,9.60
2012,07,25,05,43,9.60
2012,07,25,05,44,9.60
2012,07,25,05,45,9.60
2012,07,25,05,46,9.60
2012,07,25,05,47,9.50
2012,07,25,05,48,9.50
2012,07,25,05,49,9.50
2012,07,25,05,50,9.50
2012,07,25,05,51,9.40
2012,07,25,05,52,9.40
2012,07,25,05,53,9.40
2012,07,25,05,54,9.40
2012,07,25,05,55,9.40
2012,07,25,05,56,9.40
2012,07,25,05,57,9.40
2012,07,25,05,58,9.40
2012,07,25,05,59,9.40
2012,07,25,06,00,9.50
2012,07,25,06,01,9.50
2012,07,25,06,02,9.60
2012,07,25,06,03,9.60
2012,07,25,06,04,9.60
2012,07,25,06,05,9.70
2012,07,25,06,06,9.70
2012,07,25,06,07,9.80
2012,07,25,06,08,9.80
2012,07,25,06,09,9.80
2012,07,25,06,10,9.80
2012,07,25,06,11,9.80
2012,07,25,06,12,9.80
2012,07,25,06,13,9.80
2012,07,25,06,14,9.70
2012,07,25,06,15,9.70
2012,07,25,06,16,9.70
2012,07,25,06,17,9.70
2012,07,25,06,18,9.70
2012,07,25,06,19,9.60
2012,07,25,06,20,9.60
2012,07,25,06,21,9.60
2012,07,25,06,22,9.60
2012,07,25,06,23,9.60
2012,07,25,06,24,9.60
2012,07,25,06,25,9.60
2012,07,25,06,26,9.60
2012,07,25,06,27,9.60
2012,07,25,06,28,9.60
2012,07,25,06,29,9.60
2012,07,25,06,30,9.60
2012,07,25,06,31,9.60
2012,07,25,06,32,9.60
2012,07,25,06,33,9.60
2012,07,25,06,34,9.60
2012,07,25,06,35,9.60
2012,07,25,06,36,9.60
2012,07,25,06,37,9.70
2012,07,25,06,38,9.70
2012,07,25,06,39,9.70
2012,07,25,06,40,9.70
2012,07,25,06,41,9.70
2012,07,25,06,42,9.80
2012,07,25,06,43,9.80
2012,07,25,06,44,9.80
2012,07,25,06,45,9.90
2012,07,25,06,46,9.90
2012,07,25,06,47,10.00
2012,07,25,06,48,10.00
2012,07,25,06,49,10.10
2012,07,25,06,50,10.10
2012,07,25,06,51,10.20
2012,07,25,06,52,10.20
2012,07,25,06,53,10.30
2012,07,25,06,54,10.30
2012,07,25,06,55,10.40
2012,07,25,06,56,10.50
2012,07,25,06,57,10.60
2012,07,25,06,58,10.70
2012,07,25,06,59,10.80
2012,07,25,07,00,10.90
2012,07,25,07,01,11.00
2012,07,25,07,02,11.00
2012,07,25,07,03,11.10
2012,07,25,07,04,11.20
2012,07,25,07,05,11.20
2012,07,25,07,06,11.30
2012,07,25,07,07,11.30
2012,07,25,07,08,11.50
2012,07,25,07,09,11.50
2012,07,25,07,10,11.60
2012,07,25,07,11,11.70
2012,07,25,07,12,11.70
2012,07,25,07,13,11.70
2012,07,25,07,14,11.80
2012,07,25,07,15,11.80
2012,07,25,07,16,11.80
2012,07,25,07,17,11.90
2012,07,25,07,18,11.90
2012,07,25,07,19,11.90
2012,07,25,07,20,12.00
2012,07,25,07,21,12.10
2012,07,25,07,22,12.10
2012,07,25,07,23,12.20
2012,07,25,07,24,12.30
2012,07,25,07,25,12.30
2012,07,25,07,26,12.40
2012,07,25,07,27,12.50
2012,07,25,07,28,12.60
2012,07,25,07,29,12.60
2012,07,25,07,30,12.70
2012,07,25,07,31,12.80
2012,07,25,07,32,12.90
2012,07,25,07,33,13.00
2012,07,25,07,34,13.00
2012,07,25,07,35,13.10
2012,07,25,07,36,13.20
2012,07,25,07,37,13.30
2012,07,25,07,38,13.40
2012,07,25,07,39,13.40
2012,07,25,07,40,13.50
2012,07,25,07,41,13.60
2012,07,25,07,42,13.80
2012,07,25,07,43,13.90
2012,07,25,07,44,14.00
2012,07,25,07,45,14.10
2012,07,25,07,46,14.30
2012,07,25,07,47,14.40
2012,07,25,07,48,14.60
2012,07,25,07,49,14.70
2012,07,25,07,50,14.80
2012,07,25,07,51,15.00
2012,07,25,07,52,15.00
2012,07,25,07,53,15.00
2012,07,25,07,54,15.10
2012,07,25,07,55,15.20
2012,07,25,07,56,15.20
2012,07,25,07,57,15.30
2012,07,25,07,58,15.40
2012,07,25,07,59,15.40
2012,07,25,08,00,15.50
2012,07,25,08,01,15.60
2012,07,25,08,02,15.70
2012,07,25,08,03,15.80
2012,07,25,08,04,15.90
2012,07,25,08,05,16.00
2012,07,25,08,06,16.00
2012,07,25,08,07,16.20
2012,07,25,08,08,16.30
2012,07,25,08,09,16.40
2012,07,25,08,10,16.60
2012,07,25,08,11,16.80
2012,07,25,08,12,17.10
2012,07,25,08,13,17.30
2012,07,25,08,14,17.60
2012,07,25,08,15,17.90
2012,07,25,08,16,18.10
2012,07,25,08,17,18.30
2012,07,25,08,18,18.50
2012,07,25,08,19,18.60
2012,07,25,08,20,18.70
2012,07,25,08,21,18.70
2012,07,25,08,22,18.70
2012,07,25,08,23,18.60
2012,07,25,08,24,18.60
2012,07,25,08,25,18.60
2012,07,25,08,26,18.60
2012,07,25,08,27,18.50
2012,07,25,08,28,18.50
2012,07,25,08,29,18.60
2012,07,25,08,30,18.60
2012,07,25,08,31,18.60
2012,07,25,08,32,18.60
2012,07,25,08,33,18.50
2012,07,25,08,34,18.50
2012,07,25,08,35,18.60
2012,07,25,08,36,18.60
2012,07,25,08,37,18.60
2012,07,25,08,38,18.60
2012,07,25,08,39,18.50
2012,07,25,08,40,18.50
2012,07,25,08,41,18.40
2012,07,25,08,42,18.40
2012,07,25,08,43,18.40
2012,07,25,08,44,18.40
2012,07,25,08,45,18.40
2012,07,25,08,46,18.50
2012,07,25,08,47,18.50
2012,07,25,08,48,18.50
2012,07,25,08,49,18.60
2012,07,25,08,50,18.60
2012,07,25,08,51,18.60
2012,07,25,08,52,18.60
2012,07,25,08,53,18.60
2012,07,25,08,54,18.60
2012,07,25,08,55,18.60
2012,07,25,08,56,18.70
2012,07,25,08,57,18.70
2012,07,25,08,58,18.70
2012,07,25,08,59,18.70
2012,07,25,09,00,18.80
2012,07,25,09,01,18.80
2012,07,25,09,02,18.80
2012,07,25,09,03,18.90
2012,07,25,09,04,18.90
2012,07,25,09,05,18.90
2012,07,25,09,06,19.00
2012,07,25,09,07,19.00
2012,07,25,09,08,19.00
2012,07,25,09,09,19.10
2012,07,25,09,10,19.10
2012,07,25,09,11,19.20
2012,07,25,09,12,19.20
2012,07,25,09,13,19.20
2012,07,25,09,14,19.20
2012,07,25,09,15,19.20
2012,07,25,09,16,19.30
2012,07,25,09,17,19.30
2012,07,25,09,18,19.20
2012,07,25,09,19,19.20
2012,07,25,09,20,19.20
2012,07,25,09,21,19.10
2012,07,25,09,22,19.10
2012,07,25,09,23,19.10
2012,07,25,09,24,19.10
2012,07,25,09,25,19.20
2012,07,25,09,26,19.30
2012,07,25,09,27,19.30
2012,07,25,09,28,19.30
2012,07,25,09,29,19.20
2012,07,25,09,30,19.10
2012,07,25,09,31,19.00
2012,07,25,09,32,18.90
2012,07,25,09,33,19.00
2012,07,25,09,34,19.10
2012,07,25,09,35,19.10
2012,07,25,09,36,19.00
2012,07,25,09,37,19.00
2012,07,25,09,38,18.90
2012,07,25,09,39,19.00
2012,07,25,09,40,19.00
2012,07,25,09,41,19.10
2012,07,25,09,42,19.20
2012,07,25,09,43,19.20
2012,07,25,09,44,19.30
2012,07,25,09,45,19.20
2012,07,25,09,46,19.20
2012,07,25,09,47,19.10
2012,07,25,09,48,19.10
2012,07,25,09,49,19.10
2012,07,25,09,50,19.00
2012,07,25,09,51,19.00
2012,07,25,09,52,19.10
2012,07,25,09,53,19.10
2012,07,25,09,54,19.00
2012,07,25,09,55,19.00
2012,07,25,09,56,18.90
2012,07,25,09,57,18.90
2012,07,25,09,58,19.00
2012,07,25,09,59,19.10
2012,07,25,10,00,19.10
2012,07,25,10,01,19.10
2012,07,25,10,02,19.20
2012,07,25,10,03,19.20
2012,07,25,10,04,19.20
2012,07,25,10,05,19.30
2012,07,25,10,06,19.30
2012,07,25,10,07,19.40
2012,07,25,10,08,19.40
2012,07,25,10,09,19.40
2012,07,25,10,10,19.50
2012,07,25,10,11,19.50
2012,07,25,10,12,19.50
2012,07,25,10,13,19.50
2012,07,25,10,14,19.60
2012,07,25,10,15,19.70
2012,07,25,10,16,19.70
2012,07,25,10,17,19.70
2012,07,25,10,18,19.70
2012,07,25,10,19,19.70
2012,07,25,10,20,19.70
2012,07,25,10,21,19.70
2012,07,25,10,22,19.70
2012,07,25,10,23,19.60
2012,07,25,10,24,19.60
2012,07,25,10,25,19.60
2012,07,25,10,26,19.60
2012,07,25,10,27,19.60
2012,07,25,10,28,19.60
2012,07,25,10,29,19.60
2012,07,25,10,30,19.70
2012,07,25,10,31,19.70
2012,07,25,10,32,19.70
2012,07,25,10,33,19.70
2012,07,25,10,34,19.70
2012,07,25,10,35,19.70
2012,07,25,10,36,19.80
2012,07,25,10,37,19.90
2012,07,25,10,38,20.00
2012,07,25,10,39,20.00
2012,07,25,10,40,20.10
2012,07,25,10,41,20.10
2012,07,25,10,42,20.10
2012,07,25,10,43,20.00
2012,07,25,10,44,20.00
2012,07,25,10,45,19.90
2012,07,25,10,46,19.90
2012,07,25,10,47,19.90
2012,07,25,10,48,20.00
2012,07,25,10,49,20.00
2012,07,25,10,50,20.00
2012,07,25,10,51,20.00
2012,07,25,10,52,20.00
2012,07,25,10,53,19.90
2012,07,25,10,54,19.90
2012,07,25,10,55,19.80
2012,07,25,10,56,19.70
2012,07,25,10,57,19.60
2012,07,25,10,58,19.60
2012,07,25,10,59,19.60
2012,07,25,11,00,19.70
2012,07,25,11,01,19.70
2012,07,25,11,02,19.70
2012,07,25,11,03,19.70
2012,07,25,11,04,19.80
2012,07,25,11,05,19.90
2012,07,25,11,06,19.90
2012,07,25,11,07,19.90
2012,07,25,11,08,19.90
2012,07,25,11,09,19.90
2012,07,25,11,10,19.90
2012,07,25,11,11,20.00
2012,07,25,11,12,20.00
2012,07,25,11,13,20.10
2012,07,25,11,14,20.10
2012,07,25,11,15,20.30
2012,07,25,11,16,20.30
2012,07,25,11,17,20.40
2012,07,25,11,18,20.60
2012,07,25,11,19,20.60
2012,07,25,11,20,20.70
2012,07,25,11,21,20.70
2012,07,25,11,22,20.70
2012,07,25,11,23,20.60
2012,07,25,11,24,20.50
2012,07,25,11,25,20.40
2012,07,25,11,26,20.30
2012,07,25,11,27,20.30
2012,07,25,11,28,20.30
2012,07,25,11,29,20.30
2012,07,25,11,30,20.20
2012,07,25,11,31,20.20
2012,07,25,11,32,20.20
2012,07,25,11,33,20.10
2012,07,25,11,34,20.10
2012,07,25,11,35,20.20
2012,07,25,11,36,20.20
2012,07,25,11,37,20.10
2012,07,25,11,38,20.10
2012,07,25,11,39,20.20
2012,07,25,11,40,20.20
2012,07,25,11,41,20.20
2012,07,25,11,42,20.20
2012,07,25,11,43,20.30
2012,07,25,11,44,20.40
2012,07,25,11,45,20.40
2012,07,25,11,46,20.50
2012,07,25,11,47,20.60
2012,07,25,11,48,20.70
2012,07,25,11,49,20.80
2012,07,25,11,50,20.80
2012,07,25,11,51,20.70
2012,07,25,11,52,20.60
2012,07,25,11,53,20.60
2012,07,25,11,54,20.60
2012,07,25,11,55,20.60
2012,07,25,11,56,20.60
2012,07,25,11,57,20.70
2012,07,25,11,58,20.70
2012,07,25,11,59,20.80
2012,07,25,12,00,20.80
2012,07,25,12,01,20.80
2012,07,25,12,02,20.70
2012,07,25,12,03,20.70
2012,07,25,12,04,20.70
2012,07,25,12,05,20.80
2012,07,25,12,06,20.80
2012,07,25,12,07,20.90
2012,07,25,12,08,20.80
2012,07,25,12,09,20.80
2012,07,25,12,10,20.70
2012,07,25,12,11,20.70
2012,07,25,12,12,20.70
2012,07,25,12,13,20.70
2012,07,25,12,14,20.70
2012,07,25,12,15,20.70
2012,07,25,12,16,20.70
2012,07,25,12,17,20.70
2012,07,25,12,18,20.70
2012,07,25,12,19,20.70
2012,07,25,12,20,20.70
2012,07,25,12,21,20.70
2012,07,25,12,22,20.70
2012,07,25,12,23,20.80
2012,07,25,12,24,20.90
2012,07,25,12,25,21.00
2012,07,25,12,26,21.10
2012,07,25,12,27,21.20
2012,07,25,12,28,21.30
2012,07,25,12,29,21.30
2012,07,25,12,30,21.30
2012,07,25,12,31,21.50
2012,07,25,12,32,21.60
2012,07,25,12,33,21.60
2012,07,25,12,34,21.60
2012,07,25,12,35,21.60
2012,07,25,12,36,21.60
2012,07,25,12,37,21.60
2012,07,25,12,38,21.60
2012,07,25,12,39,21.70
2012,07,25,12,40,21.60
2012,07,25,12,41,21.50
2012,07,25,12,42,21.50
2012,07,25,12,43,21.60
2012,07,25,12,44,21.80
2012,07,25,12,45,21.90
2012,07,25,12,46,22.00
2012,07,25,12,47,22.10
2012,07,25,12,48,22.20
2012,07,25,12,49,22.30
2012,07,25,12,50,22.30
2012,07,25,12,51,22.30
2012,07,25,12,52,22.30
2012,07,25,12,53,22.30
2012,07,25,12,54,22.50
2012,07,25,12,55,22.60
2012,07,25,12,56,22.40
2012,07,25,12,57,22.10
2012,07,25,12,58,21.70
2012,07,25,12,59,21.50
2012,07,25,13,00,21.20
2012,07,25,13,01,21.10
2012,07,25,13,02,21.10
2012,07,25,13,03,21.30
2012,07,25,13,04,21.30
2012,07,25,13,05,21.30
2012,07,25,13,06,21.20
2012,07,25,13,07,21.10
2012,07,25,13,08,21.20
2012,07,25,13,09,21.20
2012,07,25,13,10,21.20
2012,07,25,13,11,21.00
2012,07,25,13,12,20.90
2012,07,25,13,13,20.80
2012,07,25,13,14,20.90
2012,07,25,13,15,21.00
2012,07,25,13,16,21.10
2012,07,25,13,17,21.30
2012,07,25,13,18,21.40
2012,07,25,13,19,21.50
2012,07,25,13,20,21.50
2012,07,25,13,21,21.30
2012,07,25,13,22,21.20
2012,07,25,13,23,21.20
2012,07,25,13,24,21.20
2012,07,25,13,25,21.30
2012,07,25,13,26,21.40
2012,07,25,13,27,21.40
2012,07,25,13,28,21.40
2012,07,25,13,29,21.40
2012,07,25,13,30,21.20
2012,07,25,13,31,21.00
2012,07,25,13,32,20.90
2012,07,25,13,33,20.80
2012,07,25,13,34,20.80
2012,07,25,13,35,20.70
2012,07,25,13,36,20.60
2012,07,25,13,37,20.70
2012,07,25,13,38,20.80
2012,07,25,13,39,21.00
2012,07,25,13,40,21.20
2012,07,25,13,41,21.40
2012,07,25,13,42,21.40
2012,07,25,13,43,21.50
2012,07,25,13,44,21.50
2012,07,25,13,45,21.40
2012,07,25,13,46,21.40
2012,07,25,13,47,21.30
2012,07,25,13,48,21.30
2012,07,25,13,49,21.30
2012,07,25,13,50,21.30
2012,07,25,13,51,21.30
2012,07,25,13,52,21.30
2012,07,25,13,53,21.30
2012,07,25,13,54,21.30
2012,07,25,13,55,21.40
2012,07,25,13,56,21.50
2012,07,25,13,57,21.50
2012,07,25,13,58,21.60
2012,07,25,13,59,21.80
2012,07,25,14,00,21.90
2012,07,25,14,01,22.00
2012,07,25,14,02,22.10
2012,07,25,14,03,22.30
2012,07,25,14,04,22.40
2012,07,25,14,05,22.60
2012,07,25,14,06,22.70
2012,07,25,14,07,22.60
2012,07,25,14,08,22.40
2012,07,25,14,09,22.20
2012,07,25,14,10,22.00
2012,07,25,14,11,21.90
2012,07,25,14,12,21.80
2012,07,25,14,13,21.80
2012,07,25,14,14,21.80
2012,07,25,14,15,21.80
2012,07,25,14,16,21.80
2012,07,25,14,17,21.80
2012,07,25,14,18,21.80
2012,07,25,14,19,21.90
2012,07,25,14,20,21.90
2012,07,25,14,21,22.10
2012,07,25,14,22,22.30
2012,07,25,14,23,22.40
2012,07,25,14,24,22.50
2012,07,25,14,25,22.50
2012,07,25,14,26,22.40
2012,07,25,14,27,22.30
2012,07,25,14,28,22.20
2012,07,25,14,29,22.30
2012,07,25,14,30,22.30
2012,07,25,14,31,22.40
2012,07,25,14,32,22.40
2012,07,25,14,33,22.50
2012,07,25,14,34,22.50
2012,07,25,14,35,22.60
2012,07,25,14,36,22.60
2012,07,25,14,37,22.60
2012,07,25,14,38,22.80
2012,07,25,14,39,22.90
2012,07,25,14,40,22.90
2012,07,25,14,41,22.90
2012,07,25,14,42,23.00
2012,07,25,14,43,22.90
2012,07,25,14,44,22.80
2012,07,25,14,45,22.60
2012,07,25,14,46,22.60
2012,07,25,14,47,22.60
2012,07,25,14,48,22.60
2012,07,25,14,49,22.80
2012,07,25,14,50,22.80
2012,07,25,14,51,22.80
2012,07,25,14,52,22.80
2012,07,25,14,53,22.80
2012,07,25,14,54,22.80
2012,07,25,14,55,22.90
2012,07,25,14,56,23.00
2012,07,25,14,57,23.00
2012,07,25,14,58,23.10
2012,07,25,14,59,23.00
2012,07,25,15,00,23.00
2012,07,25,15,01,22.90
2012,07,25,15,02,22.90
2012,07,25,15,03,22.80
2012,07,25,15,04,22.90
2012,07,25,15,05,22.90
2012,07,25,15,06,22.90
2012,07,25,15,07,22.80
2012,07,25,15,08,22.90
2012,07,25,15,09,23.00
2012,07,25,15,10,23.10
2012,07,25,15,11,23.10
2012,07,25,15,12,23.10
2012,07,25,15,13,23.10
2012,07,25,15,14,23.20
2012,07,25,15,15,23.30
2012,07,25,15,16,23.30
2012,07,25,15,17,23.30
2012,07,25,15,18,23.40
2012,07,25,15,19,23.40
2012,07,25,15,20,23.40
2012,07,25,15,21,23.50
2012,07,25,15,22,23.60
2012,07,25,15,23,23.70
2012,07,25,15,24,23.70
2012,07,25,15,25,23.70
2012,07,25,15,26,23.70
2012,07,25,15,27,23.50
2012,07,25,15,28,23.40
2012,07,25,15,29,23.40
2012,07,25,15,30,23.50
2012,07,25,15,31,23.70
2012,07,25,15,32,23.80
2012,07,25,15,33,23.70
2012,07,25,15,34,23.70
2012,07,25,15,35,23.70
2012,07,25,15,36,23.70
2012,07,25,15,37,23.80
2012,07,25,15,38,23.90
2012,07,25,15,39,23.90
2012,07,25,15,40,24.00
2012,07,25,15,41,24.00
2012,07,25,15,42,24.00
2012,07,25,15,43,23.90
2012,07,25,15,44,23.90
2012,07,25,15,45,24.00
2012,07,25,15,46,24.10
2012,07,25,15,47,24.20
2012,07,25,15,48,24.10
2012,07,25,15,49,24.00
2012,07,25,15,50,23.90
2012,07,25,15,51,23.80
2012,07,25,15,52,23.70
2012,07,25,15,53,23.70
2012,07,25,15,54,23.60
2012,07,25,15,55,23.60
2012,07,25,15,56,23.60
2012,07,25,15,57,23.50
2012,07,25,15,58,23.50
2012,07,25,15,59,23.60
2012,07,25,16,00,23.60
2012,07,25,16,01,23.50
2012,07,25,16,02,23.50
2012,07,25,16,03,23.50
2012,07,25,16,04,23.50
2012,07,25,16,05,23.50
2012,07,25,16,06,23.60
2012,07,25,16,07,23.70
2012,07,25,16,08,23.70
2012,07,25,16,09,23.70
2012,07,25,16,10,23.60
2012,07,25,16,11,23.50
2012,07,25,16,12,23.50
2012,07,25,16,13,23.70
2012,07,25,16,14,23.70
2012,07,25,16,15,23.70
2012,07,25,16,16,23.60
2012,07,25,16,17,23.70
2012,07,25,16,18,23.60
2012,07,25,16,19,23.60
2012,07,25,16,20,23.60
2012,07,25,16,21,23.50
2012,07,25,16,22,23.40
2012,07,25,16,23,23.40
2012,07,25,16,24,23.40
2012,07,25,16,25,23.40
2012,07,25,16,26,23.40
2012,07,25,16,27,23.50
2012,07,25,16,28,23.50
2012,07,25,16,29,23.60
2012,07,25,16,30,23.60
2012,07,25,16,31,23.60
2012,07,25,16,32,23.70
2012,07,25,16,33,23.70
2012,07,25,16,34,23.60
2012,07,25,16,35,23.60
2012,07,25,16,36,23.50
2012,07,25,16,37,23.60
2012,07,25,16,38,23.60
2012,07,25,16,39,23.60
2012,07,25,16,40,23.60
2012,07,25,16,41,23.70
2012,07,25,16,42,23.80
2012,07,25,16,43,23.80
2012,07,25,16,44,23.80
2012,07,25,16,45,23.80
2012,07,25,16,46,23.70
2012,07,25,16,47,23.60
2012,07,25,16,48,23.50
2012,07,25,16,49,23.40
2012,07,25,16,50,23.30
2012,07,25,16,51,23.20
2012,07,25,16,52,23.20
2012,07,25,16,53,23.20
2012,07,25,16,54,23.20
2012,07,25,16,55,23.20
2012,07,25,16,56,23.10
2012,07,25,16,57,23.00
2012,07,25,16,58,23.00
2012,07,25,16,59,23.10
2012,07,25,17,00,23.10
2012,07,25,17,01,23.10
2012,07,25,17,02,23.00
2012,07,25,17,03,23.00
2012,07,25,17,04,23.10
2012,07,25,17,05,23.10
2012,07,25,17,06,23.10
2012,07,25,17,07,23.00
2012,07,25,17,08,22.90
2012,07,25,17,09,22.80
2012,07,25,17,10,22.80
2012,07,25,17,11,22.70
2012,07,25,17,12,22.70
2012,07,25,17,13,22.70
2012,07,25,17,14,22.70
2012,07,25,17,15,22.70
2012,07,25,17,16,22.70
2012,07,25,17,17,22.60
2012,07,25,17,18,22.50
2012,07,25,17,19,22.60
2012,07,25,17,20,22.50
2012,07,25,17,21,22.50
2012,07,25,17,22,22.60
2012,07,25,17,23,22.60
2012,07,25,17,24,22.60
2012,07,25,17,25,22.60